Location: Hard Labor Creek Observatory
(33.6704°N, 83.5946°W)
Time: 02:31:45
(UTC-04:00)

ISS - Visible Passes

Search period start: 28 September 2020 00:00
Search period end: 08 October 2020 00:00
Orbit: 419 x 421 km, 51.6° (Epoch: 29 September)

Date Brightness Start Highest point End Pass type
(mag) Time Alt. Az. Time Alt. Az. Time Alt. Az.
02 Oct -1.2 20:34:25 10° N 20:35:11 11° NNE 20:35:11 11° NNE visible
03 Oct -0.9 21:22:10 10° NNW 21:22:50 15° NNW 21:22:50 15° NNW visible
04 Oct -2.2 20:35:08 10° NNW 20:37:35 24° NNE 20:37:35 24° NNE visible
05 Oct -1.8 19:48:17 10° N 19:50:31 16° NNE 19:52:25 11° ENE visible
05 Oct -1.0 21:24:15 10° WNW 21:25:25 19° WNW 21:25:25 19° WNW visible
06 Oct -4.0 20:36:51 10° NW 20:40:13 82° NE 20:40:23 78° E visible
07 Oct -3.3 19:49:38 10° NNW 19:52:52 43° NE 19:55:32 14° ESE visible
07 Oct -0.6 21:27:36 10° W 21:28:32 13° WSW 21:28:32 13° WSW visible
